EASY03 LPPT-LEZL

Flight info

Callsign EASY03
Flight time 0h 49m
Altitude 35000
Route DUZOP DCT MINTA/N0463F340 N747 OSLEP
Aircraft A20N/M-SDE2E3FGHIRWXY/LB1

Departure

Time 2026-04-17 21:33
Airport Lisbon Humberto Delgado Airport (LPPT)

Arrival

Time 2026-04-17 22:22
Airport Seville Airport (LEZL)
Time Latitude Longitude Altitude Speed Heading
2026-04-17 20:56 38.77027 -9.13089 337 ft 0 kts 78°
2026-04-17 21:17 38.77025 -9.13102 333 ft 3 kts 80°
2026-04-17 21:17 38.77022 -9.13130 334 ft 3 kts 89°
2026-04-17 21:17 38.77024 -9.13158 334 ft 3 kts 109°
2026-04-17 21:18 38.77034 -9.13179 333 ft 3 kts 160°
2026-04-17 21:18 38.77042 -9.13183 334 ft 0 kts 168°
2026-04-17 21:18 38.77043 -9.13183 334 ft 0 kts 168°
2026-04-17 21:19 38.77042 -9.13183 334 ft 0 kts 168°
2026-04-17 21:25 38.77038 -9.13181 338 ft 0 kts 168°
2026-04-17 21:25 38.77035 -9.13181 338 ft 2 kts 169°
2026-04-17 21:25 38.77008 -9.13174 338 ft 6 kts 169°
2026-04-17 21:25 38.76954 -9.13161 338 ft 10 kts 169°
2026-04-17 21:26 38.76874 -9.13141 338 ft 12 kts 167°
2026-04-17 21:26 38.76789 -9.13148 339 ft 12 kts 227°
2026-04-17 21:26 38.76766 -9.13252 339 ft 13 kts 257°
2026-04-17 21:26 38.76743 -9.13370 351 ft 14 kts 249°
2026-04-17 21:27 38.76669 -9.13454 346 ft 14 kts 224°
2026-04-17 21:27 38.76642 -9.13555 353 ft 6 kts 262°
2026-04-17 21:27 38.76640 -9.13571 348 ft 3 kts 261°
2026-04-17 21:27 38.76634 -9.13617 347 ft 7 kts 261°
2026-04-17 21:28 38.76623 -9.13690 347 ft 10 kts 257°
2026-04-17 21:28 38.76605 -9.13790 345 ft 13 kts 257°
2026-04-17 21:28 38.76585 -9.13908 355 ft 12 kts 257°
2026-04-17 21:28 38.76555 -9.14014 354 ft 14 kts 234°
2026-04-17 21:29 38.76499 -9.14121 353 ft 16 kts 257°
2026-04-17 21:29 38.76524 -9.14260 338 ft 11 kts 294°
2026-04-17 21:29 38.76536 -9.14297 335 ft 0 kts 292°
2026-04-17 21:30 38.76537 -9.14299 336 ft 2 kts 292°
2026-04-17 21:31 38.76557 -9.14359 335 ft 13 kts 294°
2026-04-17 21:31 38.76647 -9.14391 335 ft 16 kts 13°
2026-04-17 21:31 38.76672 -9.14375 336 ft 0 kts 24°
2026-04-17 21:32 38.76673 -9.14375 336 ft 0 kts 24°
2026-04-17 21:32 38.76931 -9.14244 353 ft 86 kts 22°
2026-04-17 21:33 38.77722 -9.13820 370 ft 158 kts 24°
2026-04-17 21:33 38.78766 -9.13174 1043 ft 172 kts 24°
2026-04-17 21:33 38.79889 -9.12456 1880 ft 191 kts 25°
2026-04-17 21:33 38.81153 -9.11644 2544 ft 214 kts 27°
2026-04-17 21:34 38.82532 -9.10711 3141 ft 240 kts 29°
2026-04-17 21:34 38.84065 -9.09617 3763 ft 264 kts 31°
2026-04-17 21:34 38.87213 -9.06928 5642 ft 276 kts 53°
2026-04-17 21:35 38.88077 -9.04770 6693 ft 273 kts 79°
2026-04-17 21:35 38.88110 -9.02337 7595 ft 275 kts 106°
2026-04-17 21:35 38.87346 -9.00112 8533 ft 277 kts 122°
2026-04-17 21:35 38.86159 -8.98178 9474 ft 279 kts 143°
2026-04-17 21:36 38.84455 -8.97014 10399 ft 281 kts 165°
2026-04-17 21:36 38.82454 -8.96798 10892 ft 301 kts 188°
2026-04-17 21:36 38.80387 -8.97623 11282 ft 323 kts 202°
2026-04-17 21:36 38.78297 -8.98788 12054 ft 329 kts 204°
2026-04-17 21:37 38.76206 -8.99986 13024 ft 331 kts 203°
2026-04-17 21:37 38.74085 -9.01178 13939 ft 334 kts 203°
2026-04-17 21:37 38.71931 -9.02361 14705 ft 340 kts 202°
2026-04-17 21:37 38.69735 -9.03546 15428 ft 346 kts 202°
2026-04-17 21:38 38.67495 -9.04744 16177 ft 351 kts 203°
2026-04-17 21:38 38.65227 -9.05953 16913 ft 356 kts 203°
2026-04-17 21:38 38.62926 -9.07178 17645 ft 361 kts 203°
2026-04-17 21:38 38.60587 -9.08424 18367 ft 366 kts 204°
2026-04-17 21:39 38.58221 -9.09684 19020 ft 370 kts 204°
2026-04-17 21:39 38.55865 -9.10939 19692 ft 373 kts 203°
2026-04-17 21:39 38.53564 -9.12165 20336 ft 376 kts 203°
2026-04-17 21:39 38.51131 -9.13461 20977 ft 380 kts 203°
2026-04-17 21:40 38.48677 -9.14767 21632 ft 384 kts 203°
2026-04-17 21:40 38.46178 -9.16015 22254 ft 388 kts 197°
2026-04-17 21:40 38.43503 -9.16564 22879 ft 393 kts 182°
2026-04-17 21:40 38.40768 -9.16183 23485 ft 400 kts 167°
2026-04-17 21:41 38.38172 -9.14858 24021 ft 407 kts 152°
2026-04-17 21:41 38.35800 -9.12846 24524 ft 412 kts 147°
2026-04-17 21:41 38.33439 -9.10752 25022 ft 415 kts 147°
2026-04-17 21:41 38.31061 -9.08644 25521 ft 418 kts 147°
2026-04-17 21:42 38.28656 -9.06523 26000 ft 422 kts 147°
2026-04-17 21:42 38.26230 -9.04394 26465 ft 425 kts 148°
2026-04-17 21:42 38.23783 -9.02253 26930 ft 429 kts 148°
2026-04-17 21:42 38.21316 -9.00099 27389 ft 432 kts 148°
2026-04-17 21:43 38.18858 -8.97954 27819 ft 435 kts 148°
2026-04-17 21:43 38.16352 -8.95770 28245 ft 438 kts 148°
2026-04-17 21:43 38.13827 -8.93570 28657 ft 441 kts 148°
2026-04-17 21:43 38.11287 -8.91360 29054 ft 444 kts 148°
2026-04-17 21:44 38.08725 -8.89144 29439 ft 447 kts 149°
2026-04-17 21:44 38.06029 -8.87182 29822 ft 447 kts 156°
2026-04-17 21:44 38.03192 -8.85550 30196 ft 449 kts 159°
2026-04-17 21:44 38.00321 -8.83938 30528 ft 451 kts 159°
2026-04-17 21:45 37.97450 -8.82318 30875 ft 454 kts 159°
2026-04-17 21:45 37.94557 -8.80684 31210 ft 456 kts 159°
2026-04-17 21:45 37.91649 -8.79040 31624 ft 457 kts 159°
2026-04-17 21:45 37.88743 -8.77398 32071 ft 456 kts 159°
2026-04-17 21:46 37.85854 -8.75768 32511 ft 455 kts 159°
2026-04-17 21:46 37.82963 -8.74137 32948 ft 455 kts 159°
2026-04-17 21:46 37.80075 -8.72511 33385 ft 454 kts 159°
2026-04-17 21:46 37.77190 -8.70888 33796 ft 454 kts 159°
2026-04-17 21:47 37.74307 -8.69267 34191 ft 453 kts 159°
2026-04-17 21:47 37.71435 -8.67628 34518 ft 454 kts 156°
2026-04-17 21:47 37.68774 -8.65529 34812 ft 459 kts 145°
2026-04-17 21:47 37.66435 -8.62764 35041 ft 464 kts 134°
2026-04-17 21:48 37.64552 -8.59448 35102 ft 468 kts 122°
2026-04-17 21:48 37.61525 -8.52173 35105 ft 468 kts 120°
2026-04-17 21:49 37.58488 -8.44904 35106 ft 468 kts 120°
2026-04-17 21:49 37.55434 -8.37652 35104 ft 468 kts 120°
2026-04-17 21:50 37.52371 -8.30400 35103 ft 468 kts 120°
2026-04-17 21:50 37.49308 -8.23164 35104 ft 468 kts 120°
2026-04-17 21:51 37.46262 -8.15982 35106 ft 468 kts 120°
2026-04-17 21:51 37.43191 -8.08762 35103 ft 468 kts 120°
2026-04-17 21:52 37.40117 -8.01549 35102 ft 468 kts 120°
2026-04-17 21:52 37.37033 -7.94331 35101 ft 468 kts 121°
2026-04-17 21:53 37.34164 -7.87629 35101 ft 468 kts 121°
2026-04-17 21:53 37.31593 -7.81635 35100 ft 468 kts 120°
2026-04-17 21:54 37.28502 -7.74444 35100 ft 468 kts 121°
2026-04-17 21:54 37.25411 -7.67266 35089 ft 467 kts 121°
2026-04-17 21:55 37.22372 -7.60220 34935 ft 448 kts 121°
2026-04-17 21:55 37.20908 -7.56829 34809 ft 435 kts 121°
2026-04-17 21:55 37.19484 -7.53537 34590 ft 425 kts 121°
2026-04-17 21:55 37.18077 -7.50292 34149 ft 422 kts 121°
2026-04-17 21:56 37.16678 -7.47068 33646 ft 419 kts 121°
2026-04-17 21:56 37.15309 -7.43919 33179 ft 415 kts 121°
2026-04-17 21:56 37.14015 -7.40698 32697 ft 413 kts 112°
2026-04-17 21:56 37.13367 -7.37210 32209 ft 412 kts 95°
2026-04-17 21:57 37.13514 -7.33647 31729 ft 409 kts 79°
2026-04-17 21:57 37.14164 -7.30188 31278 ft 406 kts 75°
2026-04-17 21:57 37.14918 -7.26793 30854 ft 402 kts 75°
2026-04-17 21:57 37.15654 -7.23424 30431 ft 399 kts 75°
2026-04-17 21:58 37.16273 -7.20052 29966 ft 395 kts 83°
2026-04-17 21:58 37.16459 -7.16637 29457 ft 391 kts 92°
2026-04-17 21:58 37.16317 -7.13251 28971 ft 387 kts 95°
2026-04-17 21:58 37.16165 -7.09895 28497 ft 384 kts 94°
2026-04-17 21:59 37.16023 -7.06558 28029 ft 381 kts 94°
2026-04-17 21:59 37.15885 -7.03262 27594 ft 377 kts 94°
2026-04-17 21:59 37.15748 -6.99984 27165 ft 374 kts 94°
2026-04-17 21:59 37.15612 -6.96751 26736 ft 371 kts 94°
2026-04-17 22:00 37.15477 -6.93572 26312 ft 368 kts 95°
2026-04-17 22:00 37.15341 -6.90383 25892 ft 365 kts 95°
2026-04-17 22:00 37.15204 -6.87216 25469 ft 363 kts 95°
2026-04-17 22:00 37.15067 -6.84061 25049 ft 361 kts 95°
2026-04-17 22:01 37.14930 -6.80931 24632 ft 359 kts 95°
2026-04-17 22:01 37.14793 -6.77820 24215 ft 357 kts 95°
2026-04-17 22:01 37.14656 -6.74723 23804 ft 355 kts 95°
2026-04-17 22:01 37.14519 -6.71641 23355 ft 353 kts 95°
2026-04-17 22:02 37.14382 -6.68588 22946 ft 349 kts 95°
2026-04-17 22:02 37.14246 -6.65559 22543 ft 345 kts 95°
2026-04-17 22:02 37.14111 -6.62567 22144 ft 342 kts 95°
2026-04-17 22:02 37.13976 -6.59606 21756 ft 339 kts 95°
2026-04-17 22:03 37.13842 -6.56672 21363 ft 336 kts 95°
2026-04-17 22:03 37.13708 -6.53765 20978 ft 333 kts 95°
2026-04-17 22:03 37.13576 -6.50919 20596 ft 330 kts 95°
2026-04-17 22:03 37.13443 -6.48057 20217 ft 328 kts 95°
2026-04-17 22:04 37.13310 -6.45217 19830 ft 326 kts 95°
2026-04-17 22:04 37.13175 -6.42353 19448 ft 324 kts 95°
2026-04-17 22:04 37.13045 -6.39588 19078 ft 322 kts 95°
2026-04-17 22:04 37.12912 -6.36792 18694 ft 321 kts 95°
2026-04-17 22:05 37.12779 -6.34005 18300 ft 320 kts 95°
2026-04-17 22:05 37.12647 -6.31235 17902 ft 317 kts 95°
2026-04-17 22:05 37.12515 -6.28496 17522 ft 314 kts 95°
2026-04-17 22:05 37.12383 -6.25777 17154 ft 311 kts 95°
2026-04-17 22:06 37.12252 -6.23077 16769 ft 309 kts 95°
2026-04-17 22:06 37.12121 -6.20405 16394 ft 306 kts 95°
2026-04-17 22:06 37.11991 -6.17753 16030 ft 304 kts 95°
2026-04-17 22:06 37.11860 -6.15115 15659 ft 302 kts 95°
2026-04-17 22:07 37.11730 -6.12499 15291 ft 300 kts 95°
2026-04-17 22:07 37.11601 -6.09899 14926 ft 298 kts 95°
2026-04-17 22:07 37.11471 -6.07313 14558 ft 297 kts 95°
2026-04-17 22:07 37.11342 -6.04739 14196 ft 295 kts 95°
2026-04-17 22:08 37.11212 -6.02175 13831 ft 294 kts 94°
2026-04-17 22:08 37.11083 -5.99623 13449 ft 292 kts 94°
2026-04-17 22:08 37.10955 -5.97099 13091 ft 290 kts 94°
2026-04-17 22:08 37.10827 -5.94590 12737 ft 287 kts 94°
2026-04-17 22:09 37.10699 -5.92097 12373 ft 285 kts 94°
2026-04-17 22:09 37.10572 -5.89628 12024 ft 283 kts 94°
2026-04-17 22:09 37.10455 -5.87352 11697 ft 281 kts 94°
2026-04-17 22:09 37.10328 -5.84916 11347 ft 279 kts 94°
2026-04-17 22:10 37.10201 -5.82462 10994 ft 278 kts 94°
2026-04-17 22:10 37.10077 -5.80086 10649 ft 276 kts 94°
2026-04-17 22:10 37.09951 -5.77689 10305 ft 275 kts 94°
2026-04-17 22:10 37.09825 -5.75302 9960 ft 274 kts 94°
2026-04-17 22:11 37.09700 -5.72928 9604 ft 272 kts 94°
2026-04-17 22:11 37.09576 -5.70575 9272 ft 269 kts 94°
2026-04-17 22:11 37.09519 -5.68237 8855 ft 271 kts 83°
2026-04-17 22:11 37.10180 -5.66051 8517 ft 269 kts 54°
2026-04-17 22:12 37.11536 -5.64494 8266 ft 264 kts 32°
2026-04-17 22:12 37.13184 -5.63495 7953 ft 263 kts 22°
2026-04-17 22:12 37.14912 -5.62769 7630 ft 261 kts 18°
2026-04-17 22:12 37.16658 -5.62136 7310 ft 260 kts 16°
2026-04-17 22:13 37.18430 -5.61772 6985 ft 261 kts
2026-04-17 22:13 37.20259 -5.61690 6563 ft 264 kts
2026-04-17 22:13 37.22087 -5.61590 6254 ft 262 kts
2026-04-17 22:13 37.23898 -5.61474 5934 ft 260 kts
2026-04-17 22:14 37.25692 -5.61351 5681 ft 255 kts
2026-04-17 22:14 37.27401 -5.61233 5589 ft 244 kts
2026-04-17 22:14 37.29076 -5.61114 5359 ft 241 kts
2026-04-17 22:14 37.30769 -5.60992 4905 ft 247 kts
2026-04-17 22:15 37.32534 -5.60864 4374 ft 255 kts
2026-04-17 22:15 37.34305 -5.60738 3933 ft 259 kts
2026-04-17 22:15 37.36105 -5.60612 3575 ft 259 kts
2026-04-17 22:15 37.37900 -5.60486 3210 ft 259 kts
2026-04-17 22:16 37.39698 -5.60518 2846 ft 258 kts 346°
2026-04-17 22:16 37.41240 -5.61502 2717 ft 243 kts 316°
2026-04-17 22:16 37.42111 -5.63207 2594 ft 227 kts 285°
2026-04-17 22:16 37.42184 -5.65124 2495 ft 215 kts 264°
2026-04-17 22:17 37.42021 -5.66942 2423 ft 204 kts 265°
2026-04-17 22:17 37.41931 -5.68679 2343 ft 194 kts 268°
2026-04-17 22:17 37.41898 -5.70301 2300 ft 174 kts 269°
2026-04-17 22:17 37.41887 -5.71724 2166 ft 154 kts 269°
2026-04-17 22:18 37.41879 -5.72981 2047 ft 134 kts 270°
2026-04-17 22:18 37.41872 -5.74117 1991 ft 134 kts 269°
2026-04-17 22:18 37.41866 -5.75287 1931 ft 132 kts 269°
2026-04-17 22:18 37.41859 -5.76430 1785 ft 132 kts 269°
2026-04-17 22:19 37.41853 -5.77586 1634 ft 132 kts 270°
2026-04-17 22:19 37.41847 -5.78736 1472 ft 131 kts 270°
2026-04-17 22:19 37.41841 -5.79884 1305 ft 131 kts 270°
2026-04-17 22:19 37.41835 -5.81027 1142 ft 130 kts 270°
2026-04-17 22:20 37.41829 -5.82169 975 ft 131 kts 270°
2026-04-17 22:20 37.41824 -5.83318 810 ft 132 kts 270°
2026-04-17 22:20 37.41818 -5.84469 633 ft 132 kts 270°
2026-04-17 22:20 37.41815 -5.85628 445 ft 132 kts 270°
2026-04-17 22:21 37.41811 -5.86784 282 ft 132 kts 269°
2026-04-17 22:21 37.41801 -5.87935 116 ft 125 kts 269°
2026-04-17 22:21 37.41799 -5.88781 111 ft 68 kts 270°
2026-04-17 22:21 37.41795 -5.89287 103 ft 55 kts 269°
2026-04-17 22:22 37.41793 -5.89747 101 ft 51 kts 270°
2026-04-17 22:22 37.41792 -5.90130 101 ft 26 kts 270°
2026-04-17 22:22 37.41827 -5.90294 101 ft 9 kts 341°
2026-04-17 22:22 37.41859 -5.90302 102 ft 0 kts 354°
2026-04-17 22:24 37.41868 -5.90303 102 ft 3 kts 355°
2026-04-17 22:24 37.41907 -5.90306 102 ft 8 kts
2026-04-17 22:24 37.41967 -5.90283 102 ft 10 kts 53°
2026-04-17 22:25 37.41984 -5.90191 104 ft 12 kts 85°
2026-04-17 22:25 37.42025 -5.90103 102 ft 8 kts 17°
2026-04-17 22:25 37.42063 -5.90135 101 ft 5 kts 283°
2026-04-17 22:25 37.42058 -5.90146 101 ft 0 kts 235°
2026-04-17 22:26 37.42049 -5.90200 101 ft 10 kts 266°
2026-04-17 22:26 37.42048 -5.90232 101 ft 0 kts 268°
2026-04-17 22:29 37.42048 -5.90269 101 ft 8 kts 262°
2026-04-17 22:30 37.42073 -5.90339 99 ft 12 kts 282°
2026-04-17 22:30 37.42077 -5.90397 101 ft 10 kts 273°
2026-04-17 22:30 37.42023 -5.90417 100 ft 8 kts 179°
2026-04-17 22:30 37.41984 -5.90404 100 ft 12 kts 114°
2026-04-17 22:31 37.41980 -5.90305 102 ft 15 kts 90°
2026-04-17 22:31 37.41979 -5.90197 104 ft 8 kts 100°
2026-04-17 22:31 37.41984 -5.90127 101 ft 10 kts 55°
2026-04-17 22:31 37.42036 -5.90098 102 ft 8 kts 356°
2026-04-17 22:32 37.42055 -5.90121 101 ft 5 kts 341°
2026-04-17 22:32 37.42108 -5.90125 100 ft 8 kts 359°
2026-04-17 22:32 37.42113 -5.90126 100 ft 1 kts 359°